[[{"header":{"parameterUnit":"m.s-1","parameterCategory":1,"la1":30.2992,"la2":30.254,"lo1":-89.0895,"lo2":-89.0443,"dy":0.0025,"dx":0.0025,"nx":19,"ny":19,"refTime":"2026-03-17T21:00:00:Z","depth":0,"parameterNumber":2,"parameterNumberName":"U-component_of_WINDS"},"data":[0,0,0,0.2846,0.2845,0.2805,0.2805,0.2753,0.2752,0,0,0,0,0,0,0,0,0,0,0,0.2859,0.2858,0.2846,0.2845,0.2805,0.2805,0.2753,0.2752,0,0,0,0,0,0,0,0,0,0,0,0.2859,0.2859,0.2858,0.2845,0.2805,0.2805,0.2753,0.2783,0,0,0,0,0,0,0,0,0,0,0.2822,0.2836,0.2859,0.2858,0.2844,0.2805,0.2805,0.2784,0.2781,0.2771,0,0.2764,0,0.2757,0.2749,0.2749,0,0,0,0.2843,0.2838,0.2827,0.2858,0.2844,0.2805,0.2823,0.2782,0.2779,0.2766,0.2763,0.2761,0.2757,0.2749,0.2748,0.2697,0.2697,0,0,0.2846,0.2852,0.2829,0.2824,0.2832,0.2824,0.2821,0.278,0.2776,0.2763,0.276,0.2756,0.2748,0.2748,0.2697,0.2697,0,0,0,0.2853,0.2854,0.2843,0.2826,0.2819,0.2823,0.282,0.2778,0.2774,0.2759,0.2755,0.2748,0.2747,0.2698,0.2697,0.2695,0,0,0,0.2854,0.2858,0.2844,0.2847,0.282,0.2799,0.2819,0.2777,0.2772,0.2755,0.2748,0.2747,0.2698,0.2697,0.2695,0.2692,0,0,0,0.2861,0.2859,0.2853,0.2848,0.2831,0.2799,0.2793,0.2776,0.277,0.2749,0.2747,0.2698,0.2698,0.2696,0.2693,0.2679,0,0,0,0.287,0.2852,0.2854,0.2832,0.2831,0.2799,0.2793,0.2768,0.275,0.2748,0.2698,0.2697,0.2696,0.2693,0.268,0.2668,0.2665,0,0,0.2851,0.285,0.2837,0.2837,0.2806,0.2804,0.2772,0.2749,0.274,0.2711,0.271,0.2695,0.2693,0.2679,0.2643,0.2641,0,0,0,0.2833,0.2823,0.2813,0.2797,0.2779,0.2763,0.2744,0.2735,0.2711,0.2728,0.2687,0.2685,0.2677,0.2671,0.2669,0.266,0.2695,0.2695,0.2695,0.2815,0.2806,0.2782,0.2767,0.2751,0.2731,0.2716,0.27,0.2696,0.2686,0.2677,0.2657,0.265,0.2649,0.264,0.2672,0.2672,0.2672,0.2672,0.2786,0.277,0.2763,0.2738,0.2727,0.2705,0.2684,0.2681,0.2658,0.2663,0.2656,0.2661,0.2646,0.2637,0.2671,0.2671,0.2671,0.2671,0.2671,0.2772,0.2763,0.2753,0.2726,0.2706,0.2691,0.2669,0.266,0.2651,0.2644,0.2632,0.2632,0.2629,0.2639,0.2639,0.2639,0.2639,0.2639,0.2639,0.2762,0.2751,0.2733,0.2712,0.2699,0.2681,0.2659,0.2645,0.2628,0.2622,0.2622,0.2617,0.2647,0.2654,0.2637,0.2638,0.2638,0.2638,0.2638,0.2734,0.2738,0.2712,0.2699,0.2672,0.2651,0.264,0.2612,0.26,0.2588,0.2584,0.2608,0.2606,0.2608,0.2613,0.2588,0.2588,0.2588,0.2588,0.2722,0.272,0.269,0.2669,0.2648,0.2634,0.2601,0.2583,0.2565,0.2556,0.2559,0.2565,0.2568,0.2564,0.2567,0.2572,0.2536,0.2536,0.2536,0.2703,0.2698,0.2674,0.2657,0.2634,0.2614,0.2583,0.2557,0.2538,0.2534,0.2548,0.255,0.2561,0.2566,0.2562,0.2567,0.2575,0,0]},{"header":{"parameterUnit":"m.s-1","parameterCategory":1,"la1":30.2992,"la2":30.254,"lo1":-89.0895,"lo2":-89.0443,"dy":0.0025,"dx":0.0025,"nx":19,"ny":19,"refTime":"2026-03-17T21:00:00:Z","depth":0,"parameterNumber":3,"parameterNumberName":"V-component_of_WINDS"},"data":[0,0,0,2.5033,2.5034,2.5054,2.5054,2.5086,2.5086,0,0,0,0,0,0,0,0,0,0,0,2.5034,2.5034,2.5033,2.5034,2.5054,2.5054,2.5086,2.5086,0,0,0,0,0,0,0,0,0,0,0,2.5034,2.5034,2.5035,2.5034,2.5054,2.5054,2.5086,2.5068,0,0,0,0,0,0,0,0,0,0,2.5047,2.5055,2.5034,2.5035,2.5034,2.5054,2.5054,2.5067,2.5069,2.5081,0,2.5095,0,2.5091,2.5089,2.5089,0,0,0,2.5028,2.5053,2.5053,2.5035,2.5034,2.5054,2.5043,2.5068,2.507,2.5084,2.5095,2.5096,2.5092,2.509,2.509,2.5177,2.5177,0,0,2.5027,2.5041,2.5051,2.5055,2.5054,2.5043,2.5044,2.5069,2.5082,2.5095,2.5097,2.5092,2.509,2.509,2.5176,2.5177,0,0,0,2.5028,2.504,2.5039,2.5054,2.5057,2.5043,2.5045,2.5081,2.508,2.5097,2.5093,2.509,2.5091,2.5175,2.5176,2.522,0,0,0,2.5027,2.504,2.5039,2.5047,2.5056,2.507,2.5056,2.5078,2.508,2.5093,2.509,2.5091,2.5175,2.5176,2.5217,2.5238,0,0,0,2.503,2.5041,2.5046,2.5048,2.5057,2.5069,2.5069,2.5078,2.5078,2.5089,2.5091,2.5174,2.5176,2.5215,2.5234,2.5263,0,0,0,2.5037,2.5087,2.5047,2.51,2.5057,2.5097,2.5068,2.5098,2.5113,2.509,2.5175,2.5176,2.5214,2.5232,2.526,2.5288,2.5301,0,0,2.5107,2.5096,2.5125,2.509,2.5141,2.5093,2.5149,2.515,2.5139,2.5164,2.5166,2.5218,2.5234,2.5262,2.5375,2.5386,0,0,0,2.5151,2.5173,2.5183,2.5198,2.5201,2.5202,2.5194,2.5193,2.5214,2.5156,2.5237,2.5246,2.5262,2.5274,2.5283,2.5294,2.5183,2.5183,2.5183,2.5269,2.525,2.5297,2.528,2.5295,2.5284,2.5293,2.529,2.527,2.5289,2.5295,2.5366,2.5381,2.5388,2.54,2.531,2.531,2.5311,2.5311,2.5366,2.5392,2.536,2.5394,2.5373,2.54,2.539,2.5373,2.5394,2.5361,2.5374,2.5337,2.5401,2.541,2.5314,2.5313,2.5313,2.5313,2.5312,2.5439,2.5448,2.5446,2.5463,2.5478,2.5459,2.5479,2.5461,2.5443,2.5456,2.5459,2.5458,2.5452,2.5459,2.5459,2.5459,2.546,2.546,2.546,2.5514,2.5511,2.5531,2.5535,2.554,2.5544,2.553,2.5534,2.5533,2.5517,2.5517,2.5491,2.5411,2.539,2.5464,2.5463,2.5463,2.5462,2.5462,2.5616,2.5589,2.562,2.5625,2.5625,2.5639,2.5614,2.5622,2.5623,2.5632,2.5603,2.5548,2.5535,2.5527,2.5509,2.5609,2.5609,2.5609,2.5609,2.5676,2.5667,2.5692,2.57,2.5706,2.5686,2.5717,2.5706,2.569,2.5688,2.5671,2.5646,2.5639,2.563,2.562,2.5603,2.5724,2.5724,2.5725,2.5736,2.5726,2.5758,2.5742,2.574,2.5737,2.5765,2.5773,2.575,2.5729,2.5685,2.568,2.564,2.5628,2.5606,2.5591,2.5559,0,0]}]]